timestamp,surface_pressure_avg,surface_temp_avg,battery_voltage,lat,long
2018-07-05 00:00:00+00:00,249.798,10.87,13.21,47.84626,-54.09684
2018-07-05 00:10:00+00:00,249.4197,10.49,13.13,47.84626,-54.09684
2018-07-05 00:20:00+00:00,253.6481,10.64,13.13,47.84626,-54.09684
2018-07-05 00:30:00+00:00,258.558,11.75,13.13,47.84626,-54.09684
2018-07-05 00:40:00+00:00,257.9814,10.48,13.13,47.84626,-54.09684
2018-07-05 00:50:00+00:00,258.6998,10.2,13.13,47.84626,-54.09684
2018-07-05 01:00:00+00:00,267.8947,10.12,13.05,47.84626,-54.09684
2018-07-05 01:10:00+00:00,275.5481,10.12,13.05,47.84626,-54.09684
2018-07-05 01:20:00+00:00,278.1081,10.15,13.05,47.84626,-54.09684
2018-07-05 01:30:00+00:00,284.6281,10.2,13.05,47.84626,-54.09684
2018-07-05 01:40:00+00:00,295.3797,10.3,13.13,47.84626,-54.09684
2018-07-05 01:50:00+00:00,299.5797,10.3,13.13,47.84626,-54.09684
2018-07-05 02:00:00+00:00,300.9481,10.3,13.05,47.84626,-54.09684
2018-07-05 02:10:00+00:00,305.298,10.3,12.97,47.84626,-54.09684
2018-07-05 02:20:00+00:00,310.3113,10.26,13.05,47.84626,-54.09684
2018-07-05 02:30:00+00:00,313.8396,10.1,13.05,47.84626,-54.09684
2018-07-05 02:40:00+00:00,318.5829,10.0,13.05,47.84626,-54.09684
2018-07-05 02:50:00+00:00,326.668,10.0,13.05,47.84626,-54.09684
2018-07-05 03:00:00+00:00,329.0446,10.0,13.05,47.84626,-54.09684
2018-07-05 03:10:00+00:00,329.8363,10.0,12.97,47.84626,-54.09684
2018-07-05 03:20:00+00:00,332.6296,9.91,13.05,47.84626,-54.09684
2018-07-05 03:30:00+00:00,334.5912,9.9,13.05,47.84626,-54.09684
2018-07-05 03:40:00+00:00,336.2496,9.9,13.05,47.84626,-54.09684
2018-07-05 03:50:00+00:00,338.3246,9.9,13.05,47.84626,-54.09684
2018-07-05 04:00:00+00:00,338.248,9.9,12.97,47.84626,-54.09684
2018-07-05 04:10:00+00:00,336.8246,9.9,12.97,47.84626,-54.09684
2018-07-05 04:20:00+00:00,336.9963,9.9,12.97,47.84626,-54.09684
2018-07-05 04:30:00+00:00,336.7613,9.89,12.97,47.84626,-54.09684
2018-07-05 04:40:00+00:00,336.1329,9.89,13.05,47.84626,-54.09684
2018-07-05 04:50:00+00:00,337.8047,9.9,13.05,47.84626,-54.09684
2018-07-05 05:00:00+00:00,335.4197,9.87,12.97,47.84626,-54.09684
2018-07-05 05:10:00+00:00,330.1613,9.9,12.89,47.84626,-54.09684
2018-07-05 05:20:00+00:00,326.803,9.9,12.97,47.84626,-54.09684
2018-07-05 05:30:00+00:00,322.8763,9.9,12.97,47.84626,-54.09684
2018-07-05 05:40:00+00:00,319.4297,9.83,12.97,47.84626,-54.09684
2018-07-05 05:50:00+00:00,311.973,9.81,12.97,47.84626,-54.09684
2018-07-05 06:00:00+00:00,306.883,9.8,12.97,47.84626,-54.09684
2018-07-05 06:10:00+00:00,303.888,9.8,12.89,47.84626,-54.09684
2018-07-05 06:20:00+00:00,299.7297,9.83,12.97,47.84626,-54.09684
2018-07-05 06:30:00+00:00,292.3163,9.89,12.97,47.84626,-54.09684
2018-07-05 06:40:00+00:00,286.0148,9.9,12.97,47.84626,-54.09684
2018-07-05 06:50:00+00:00,282.1163,9.9,12.97,47.84626,-54.09684
2018-07-05 07:00:00+00:00,274.4631,9.9,12.89,47.84626,-54.09684
2018-07-05 07:10:00+00:00,266.8097,9.9,12.81,47.84626,-54.09684
2018-07-05 07:20:00+00:00,261.838,9.9,12.89,47.84626,-54.09684
2018-07-05 07:30:00+00:00,256.5264,9.97,12.89,47.84626,-54.09684
2018-07-05 07:40:00+00:00,247.1964,10.45,12.97,47.84626,-54.09684
2018-07-05 07:50:00+00:00,239.8365,11.0,12.97,47.84626,-54.09684
2018-07-05 08:00:00+00:00,238.8281,10.9,12.89,47.84626,-54.09684
2018-07-05 08:10:00+00:00,235.7031,11.0,12.81,47.84626,-54.09684
2018-07-05 08:20:00+00:00,228.188,11.13,12.89,47.84626,-54.09684
2018-07-05 08:30:00+00:00,222.7531,11.2,12.97,47.84626,-54.09684
2018-07-05 08:40:00+00:00,223.3098,11.2,12.97,47.84626,-54.09684
2018-07-05 08:50:00+00:00,216.2381,11.2,13.05,47.84626,-54.09684
2018-07-05 09:00:00+00:00,209.8348,11.2,13.05,47.84626,-54.09684
2018-07-05 09:10:00+00:00,212.5181,11.2,12.97,47.84626,-54.09684
2018-07-05 09:20:00+00:00,211.8631,11.2,13.13,47.84626,-54.09684
2018-07-05 09:30:00+00:00,202.2015,11.2,13.29,47.84626,-54.09684
2018-07-05 09:40:00+00:00,200.8448,11.2,13.44,47.84626,-54.09684
2018-07-05 09:50:00+00:00,208.5081,11.2,13.68,47.84626,-54.09684
2018-07-05 10:00:00+00:00,207.4181,11.12,13.84,47.84626,-54.09684
2018-07-05 10:10:00+00:00,204.6748,11.15,13.92,47.84626,-54.09684
2018-07-05 10:20:00+00:00,212.4197,11.1,14.16,47.84626,-54.09684
2018-07-05 10:30:00+00:00,217.8214,11.1,14.32,47.84626,-54.09684
2018-07-05 10:40:00+00:00,212.9598,11.1,14.48,47.84626,-54.09684
2018-07-05 10:50:00+00:00,214.4081,11.1,14.64,47.84626,-54.09684
2018-07-05 11:00:00+00:00,222.7764,11.0,14.56,47.84626,-54.09684
2018-07-05 11:10:00+00:00,224.3498,10.97,14.48,47.84626,-54.09684
2018-07-05 11:20:00+00:00,224.4748,10.9,14.64,47.84626,-54.09684
2018-07-05 11:30:00+00:00,228.7898,10.8,14.64,47.84626,-54.09684
2018-07-05 11:40:00+00:00,231.7414,10.82,14.64,47.84626,-54.09684
2018-07-05 11:50:00+00:00,229.4364,10.9,14.64,47.84626,-54.09684
2018-07-05 12:00:00+00:00,230.6314,10.8,14.56,47.84626,-54.09684
2018-07-05 12:10:00+00:00,235.1165,10.6,14.48,47.84626,-54.09684
2018-07-05 12:20:00+00:00,235.2081,10.69,14.64,47.84626,-54.09684
2018-07-05 12:30:00+00:00,236.2498,10.04,14.64,47.84626,-54.09684
2018-07-05 12:40:00+00:00,237.8681,9.5,14.64,47.84626,-54.09684
2018-07-05 12:50:00+00:00,241.1797,9.58,14.64,47.84626,-54.09684
2018-07-05 13:00:00+00:00,248.2781,9.86,14.56,47.84626,-54.09684
2018-07-05 13:10:00+00:00,253.8781,9.49,14.48,47.84626,-54.09684
2018-07-05 13:20:00+00:00,256.7114,9.33,14.64,47.84626,-54.09684
2018-07-05 13:30:00+00:00,260.373,9.48,14.64,47.84626,-54.09684
2018-07-05 13:40:00+00:00,268.0181,9.4,14.64,47.84626,-54.09684
2018-07-05 13:50:00+00:00,272.4881,9.3,14.64,47.84626,-54.09684
2018-07-05 14:00:00+00:00,276.0564,9.34,14.48,47.84626,-54.09684
2018-07-05 14:10:00+00:00,283.3331,9.4,14.48,47.84626,-54.09684
2018-07-05 14:20:00+00:00,292.4197,9.3,14.56,47.84626,-54.09684
2018-07-05 14:30:00+00:00,295.9131,9.2,14.56,47.84626,-54.09684
2018-07-05 14:40:00+00:00,296.8013,9.1,14.56,47.84626,-54.09684
2018-07-05 14:50:00+00:00,302.4763,8.9,14.48,47.84626,-54.09684
2018-07-05 15:00:00+00:00,309.5779,8.9,14.48,47.84626,-54.09684
2018-07-05 15:10:00+00:00,308.6979,9.0,14.4,47.84626,-54.09684
2018-07-05 15:20:00+00:00,308.1864,9.0,14.48,47.84626,-54.09684
2018-07-05 15:30:00+00:00,312.8246,8.9,14.48,47.84626,-54.09684
2018-07-05 15:40:00+00:00,310.3796,8.86,14.48,47.84626,-54.09684
2018-07-05 15:50:00+00:00,306.118,8.8,14.48,47.84626,-54.09684
2018-07-05 16:00:00+00:00,308.6947,8.6,14.32,47.84626,-54.09684
2018-07-05 16:10:00+00:00,312.093,8.7,14.32,47.84626,-54.09684
2018-07-05 16:20:00+00:00,308.733,8.7,14.4,47.84626,-54.09684
2018-07-05 16:30:00+00:00,307.8346,8.5,14.4,47.84626,-54.09684
2018-07-05 16:40:00+00:00,311.0031,8.3,14.4,47.84626,-54.09684
2018-07-05 16:50:00+00:00,310.8414,8.58,14.32,47.84626,-54.09684
2018-07-05 17:00:00+00:00,311.7162,8.5,14.16,47.84626,-54.09684
2018-07-05 17:10:00+00:00,314.7097,8.2,14.16,47.84626,-54.09684
2018-07-05 17:20:00+00:00,311.2763,8.45,14.16,47.84626,-54.09684
2018-07-05 17:30:00+00:00,305.7097,8.8,14.16,47.84626,-54.09684
2018-07-05 17:40:00+00:00,306.6813,8.6,14.24,47.84626,-54.09684
2018-07-05 17:50:00+00:00,308.0164,8.3,14.16,47.84626,-54.09684
2018-07-05 18:00:00+00:00,301.5747,8.87,14.08,47.84626,-54.09684
2018-07-05 18:10:00+00:00,299.2329,8.7,14.0,47.84626,-54.09684
2018-07-05 18:20:00+00:00,303.4397,8.6,14.08,47.84626,-54.09684
2018-07-05 18:30:00+00:00,301.7313,8.56,14.08,47.84626,-54.09684
2018-07-05 18:40:00+00:00,294.403,8.5,14.0,47.84626,-54.09684
2018-07-05 18:50:00+00:00,290.1797,8.3,14.0,47.84626,-54.09684
2018-07-05 19:00:00+00:00,286.1647,8.2,14.0,47.84626,-54.09684
2018-07-05 19:10:00+00:00,279.6997,8.2,13.92,47.84626,-54.09684
2018-07-05 19:20:00+00:00,271.4864,8.95,14.0,47.84626,-54.09684
2018-07-05 19:30:00+00:00,266.7381,9.1,14.0,47.84626,-54.09684
2018-07-05 19:40:00+00:00,260.4381,9.1,14.0,47.84626,-54.09684
2018-07-05 19:50:00+00:00,253.9247,8.7,14.08,47.84626,-54.09684
2018-07-05 20:00:00+00:00,249.3881,8.85,14.0,47.84626,-54.09684
2018-07-05 20:10:00+00:00,246.4164,9.03,13.92,47.84626,-54.09684
2018-07-05 20:20:00+00:00,241.9564,9.0,13.92,47.84626,-54.09684
2018-07-05 20:30:00+00:00,236.6098,8.8,14.0,47.84626,-54.09684
2018-07-05 20:40:00+00:00,230.8064,8.74,14.0,47.84626,-54.09684
2018-07-05 20:50:00+00:00,228.0747,8.99,14.0,47.84626,-54.09684
2018-07-05 21:00:00+00:00,224.9981,9.09,13.92,47.84626,-54.09684
2018-07-05 21:10:00+00:00,220.4381,9.03,13.84,47.84626,-54.09684
2018-07-05 21:20:00+00:00,216.7697,9.12,13.84,47.84626,-54.09684
2018-07-05 21:30:00+00:00,215.4214,9.24,13.84,47.84626,-54.09684
2018-07-05 21:40:00+00:00,211.4865,9.46,13.84,47.84626,-54.09684
2018-07-05 21:50:00+00:00,208.3731,9.79,13.84,47.84626,-54.09684
2018-07-05 22:00:00+00:00,209.5665,9.9,13.76,47.84626,-54.09684
2018-07-05 22:10:00+00:00,210.2431,9.9,13.68,47.84626,-54.09684
2018-07-05 22:20:00+00:00,209.7432,9.9,13.68,47.84626,-54.09684
2018-07-05 22:30:00+00:00,209.2131,10.0,13.68,47.84626,-54.09684
2018-07-05 22:40:00+00:00,209.4847,9.9,13.68,47.84626,-54.09684
2018-07-05 22:50:00+00:00,211.2397,9.79,13.68,47.84626,-54.09684
2018-07-05 23:00:00+00:00,213.2048,9.8,13.6,47.84626,-54.09684
2018-07-05 23:10:00+00:00,214.0381,9.9,13.44,47.84626,-54.09684
2018-07-05 23:20:00+00:00,218.3931,9.9,13.44,47.84626,-54.09684
2018-07-05 23:30:00+00:00,221.1214,9.92,13.37,47.84626,-54.09684
2018-07-05 23:40:00+00:00,222.0565,10.0,13.37,47.84626,-54.09684
2018-07-05 23:50:00+00:00,221.9648,10.05,13.37,47.84626,-54.09684
